FW7290 Weather Reports


Display with metric or nautical units.
time (UTC)temp
F
wind
direction
speed
MPH
gust
MPH
rain 1hr
in
rain 24hr
in
rain mn
in
humidity
%
barometer
mb
20260504090128 45 228 0.0 0.0 0.00 0.00 0.00 72 1011.0
20260504081558 46 227 0.0 0.0 0.00 0.00 0.00 66 1011.1
20260504081054 46 228 0.0 0.0 0.00 0.00 0.00 65 1011.0
20260504080551 46 225 0.0 0.0 0.00 0.00 0.00 65 1011.1
20260504050404 46 227 0.0 0.0 0.00 0.00 0.00 67 1011.2
20260504045901 46 227 0.0 0.0 0.00 0.00 0.00 67 1011.5
20260504045356 46 228 0.0 0.0 0.00 0.00 0.00 67 1011.4
20260504044853 46 228 0.0 0.0 0.00 0.00 0.00 66 1011.5
20260504044350 46 226 0.0 0.0 0.00 0.00 0.00 66 1011.5
20260504043848 46 223 0.0 0.0 0.00 0.00 0.00 66 1011.8
20260504043344 46 215 0.0 0.0 0.00 0.00 0.00 66 1012.1
20260504042842 46 215 0.0 0.0 0.00 0.00 0.00 65 1012.1
20260504042338 45 215 0.0 0.0 0.00 0.00 0.00 64 1011.9
20260504041834 45 215 0.0 0.0 0.00 0.00 0.00 64 1011.9
20260504041331 45 215 0.0 0.0 0.00 0.00 0.00 64 1011.8
20260504040827 45 215 0.0 0.0 0.00 0.00 0.00 66 1011.7
20260504040324 44 215 0.0 0.0 0.00 0.00 0.00 67 1011.6
20260504035820 44 215 0.0 0.0 0.00 0.00 0.00 67 1011.5
20260504035318 44 215 0.0 0.0 0.00 0.00 0.00 67 1011.7
20260504034815 44 215 0.0 0.0 0.00 0.00 0.00 67 1011.8
20260504034312 44 215 0.0 0.0 0.00 0.00 0.00 68 1011.4
20260504033809 44 215 0.0 0.0 0.00 0.00 0.00 67 1011.6
20260504033307 44 215 0.0 0.0 0.00 0.00 0.00 67 1011.3
20260504032803 44 215 0.0 0.0 0.00 0.00 0.00 68 1011.5
20260504032301 44 215 0.0 0.0 0.00 0.00 0.00 68 1011.5
20260504031757 44 215 0.0 0.0 0.00 0.00 0.00 68 1011.5
20260504031255 43 215 0.0 0.0 0.00 0.00 0.00 68 1011.3
20260504030750 43 215 0.0 0.0 0.00 0.00 0.00 69 1011.4
20260504030248 43 215 0.0 0.0 0.00 0.00 0.00 69 1011.3
20260504025744 43 215 0.0 0.0 0.00 0.00 0.00 68 1011.3
20260504025241 43 215 0.0 0.0 0.00 0.00 0.00 68 1011.2
20260504024738 43 215 0.0 0.0 0.00 0.00 0.00 67 1011.2
20260504024235 43 215 0.0 0.0 0.00 0.00 0.00 66 1011.3
20260504023732 43 215 0.0 0.0 0.00 0.00 0.00 65 1011.2
20260504023228 44 215 0.0 0.0 0.00 0.00 0.00 64 1011.2
20260504022724 44 215 0.0 0.0 0.00 0.00 0.00 64 1011.2
20260504022220 44 214 0.0 0.0 0.00 0.00 0.00 63 1011.2
20260504021718 44 222 0.0 0.0 0.00 0.00 0.00 63 1011.3
20260504021215 44 222 0.0 0.0 0.00 0.00 0.00 63 1011.3
20260504020711 45 222 0.0 0.0 0.00 0.00 0.00 61 1011.4
20260504020208 45 222 0.0 0.0 0.00 0.00 0.00 61 1011.3
20260504015704 46 222 0.0 0.0 0.00 0.00 0.00 60 1011.1
20260504015200 46 222 0.0 0.0 0.00 0.00 0.00 58 1011.3
20260504014656 46 222 0.0 0.0 0.00 0.00 0.00 57 1011.3
20260504014153 47 222 0.0 0.0 0.00 0.00 0.00 56 1011.3
20260504013651 47 222 0.0 0.0 0.00 0.00 0.00 54 1011.2
20260504013148 48 222 0.0 0.0 0.00 0.00 0.00 52 1011.3
20260504012645 48 222 0.0 0.0 0.00 0.00 0.00 51 1011.1
20260504012143 49 222 0.0 0.0 0.00 0.00 0.00 50 1010.9
20260504011639 49 222 0.0 0.0 0.00 0.00 0.00 47 1010.9
20260504011136 50 222 0.0 0.0 0.00 0.00 0.00 46 1011.1
20260504010632 50 222 0.0 0.0 0.00 0.00 0.00 45 1010.8
20260504010128 50 222 0.0 0.0 0.00 0.00 0.00 45 1010.8
20260504005625 50 230 0.0 0.0 0.00 0.00 0.00 45 1010.7
20260504005122 50 229 0.0 0.0 0.00 0.00 0.00 44 1010.8
20260504004620 51 224 0.0 0.0 0.00 0.00 0.00 43 1010.7
20260504004117 51 224 0.0 0.0 0.00 0.00 0.00 43 1010.6
20260504003613 51 224 0.0 0.0 0.00 0.00 0.00 42 1010.7
20260504003110 51 231 0.0 0.0 0.00 0.00 0.00 42 1010.8
20260504002606 52 224 0.0 0.0 0.00 0.00 0.00 41 1010.6
20260504002104 52 224 0.0 0.0 0.00 0.00 0.00 40 1010.7
20260504001602 52 227 0.0 0.0 0.00 0.00 0.00 40 1010.6
20260504001057 53 232 0.0 0.0 0.00 0.00 0.00 39 1010.5
20260504000555 53 226 0.0 1.0 0.00 0.00 0.00 38 1010.5
20260504000052 54 239 0.0 0.0 0.00 0.00 0.00 38 1010.5
20260503235550 54 295 2.0 2.0 0.00 0.00 0.00 37 1010.4
20260503235047 54 268 2.0 3.0 0.00 0.00 0.00 37 1010.4
20260503234545 54 223 1.0 2.0 0.00 0.00 0.00 36 1010.2
20260503234043 54 75 3.0 3.0 0.00 0.00 0.00 36 1010.0
20260503233539 55 235 1.0 1.0 0.00 0.00 0.00 36 1010.1
20260503233035 55 227 1.0 1.0 0.00 0.00 0.00 35 1010.1
20260503232532 55 279 3.0 3.0 0.00 0.00 0.00 35 1010.0
20260503232030 55 329 2.0 2.0 0.00 0.00 0.00 35 1009.7
20260503231527 55 341 3.0 6.0 0.00 0.00 0.00 34 1009.8
20260503231024 55 317 2.0 3.0 0.00 0.00 0.00 33 1009.6
20260503230520 55 282 1.0 2.0 0.00 0.00 0.00 33 1009.6
20260503230018 55 272 1.0 1.0 0.00 0.00 0.00 33 1009.4
20260503225515 55 220 1.0 1.0 0.00 0.00 0.00 32 1009.5
20260503225010 56 252 1.0 1.0 0.00 0.00 0.00 31 1009.4
20260503224508 56 3 5.0 7.0 0.00 0.00 0.00 29 1009.1
20260503224005 56 271 3.0 3.0 0.00 0.00 0.00 30 1009.4
20260503223503 56 233 3.0 3.0 0.00 0.00 0.00 30 1009.4
20260503222958 56 321 4.0 6.0 0.00 0.00 0.00 28 1009.4
20260503222457 56 264 3.0 3.0 0.00 0.00 0.00 30 1009.4
20260503221954 56 12 4.0 5.0 0.00 0.00 0.00 29 1009.3
20260503221453 56 288 4.0 6.0 0.00 0.00 0.00 28 1009.3
20260503220950 56 271 2.0 2.0 0.00 0.00 0.00 27 1009.4
20260503220446 56 282 4.0 5.0 0.00 0.00 0.00 27 1009.4
20260503215943 56 248 5.0 6.0 0.00 0.00 0.00 26 1009.6
20260503215439 56 10 2.0 3.0 0.00 0.00 0.00 27 1009.3
20260503214937 56 319 4.0 6.0 0.00 0.00 0.00 26 1009.5
20260503214435 56 3 3.0 6.0 0.00 0.00 0.00 26 1009.5
20260503213932 56 247 2.0 2.0 0.00 0.00 0.00 27 1009.4
20260503213430 56 272 4.0 6.0 0.00 0.00 0.00 26 1009.4
20260503212926 57 307 3.0 6.0 0.00 0.00 0.00 26 1009.4
20260503212424 56 307 4.0 6.0 0.00 0.00 0.00 27 1009.3
20260503211921 56 327 4.0 5.0 0.00 0.00 0.00 27 1009.2
20260503211418 56 13 10.0 16.0 0.00 0.00 0.00 27 1009.2
20260503210913 56 351 1.0 2.0 0.00 0.00 0.00 28 1009.2
20260503210410 56 348 7.0 10.0 0.00 0.00 0.00 26 1009.3
20260503205905 56 328 3.0 3.0 0.00 0.00 0.00 27 1009.3
20260503205402 56 334 2.0 3.0 0.00 0.00 0.00 28 1009.5
20260503204858 56 337 7.0 9.0 0.00 0.00 0.00 26 1009.5
20260503204356 55 8 3.0 3.0 0.00 0.00 0.00 27 1009.4
20260503203853 55 295 3.0 5.0 0.00 0.00 0.00 30 1009.5
20260503203350 55 319 4.0 6.0 0.00 0.00 0.00 30 1009.4
20260503202847 56 319 3.0 3.0 0.00 0.00 0.00 29 1009.5
20260503202345 55 319 3.0 5.0 0.00 0.00 0.00 32 1009.7
20260503201843 55 325 3.0 6.0 0.00 0.00 0.00 33 1009.7
20260503201340 54 265 3.0 3.0 0.00 0.00 0.00 33 1009.6
20260503200838 54 318 3.0 3.0 0.00 0.00 0.00 33 1009.6
20260503200333 54 310 4.0 6.0 0.00 0.00 0.00 33 1009.8
20260503195830 54 177 2.0 3.0 0.00 0.00 0.00 34 1009.7
20260503195327 55 338 5.0 8.0 0.00 0.00 0.00 32 1009.8
20260503194824 54 241 2.0 2.0 0.00 0.00 0.00 34 1009.8
20260503194320 54 278 6.0 8.0 0.00 0.00 0.00 33 1009.8
20260503193816 54 345 1.0 3.0 0.00 0.00 0.00 36 1009.9
20260503193312 54 18 9.0 13.0 0.00 0.00 0.00 34 1010.2
20260503192809 54 295 3.0 5.0 0.00 0.00 0.00 36 1010.3
20260503192305 54 254 1.0 2.0 0.00 0.00 0.00 35 1010.3
20260503191800 53 356 5.0 6.0 0.00 0.00 0.00 35 1010.4
20260503191257 53 357 3.0 3.0 0.00 0.00 0.00 35 1010.5
20260503190754 54 266 4.0 5.0 0.00 0.00 0.00 34 1010.4
20260503190251 54 219 1.0 1.0 0.00 0.00 0.00 37 1010.5
20260503185748 54 222 1.0 1.0 0.00 0.00 0.00 37 1010.4
20260503185244 54 24 3.0 7.0 0.00 0.00 0.00 35 1010.6
20260503184738 54 2 10.0 15.0 0.00 0.00 0.00 34 1010.7
20260503184235 55 333 4.0 6.0 0.00 0.00 0.00 35 1010.9
20260503183731 54 290 2.0 3.0 0.00 0.00 0.00 37 1010.5
20260503183229 53 275 3.0 3.0 0.00 0.00 0.00 38 1011.0
20260503182727 52 236 2.0 2.0 0.00 0.00 0.00 42 1010.9
20260503182226 53 243 1.0 2.0 0.00 0.00 0.00 38 1011.2
20260503181722 53 29 5.0 8.0 0.00 0.00 0.00 38 1011.2
20260503181219 51 350 3.0 6.0 0.00 0.00 0.00 40 1011.0
20260503180715 52 275 3.0 3.0 0.00 0.00 0.00 39 1011.1
20260503180214 51 320 7.0 10.0 0.00 0.00 0.00 40 1011.1
20260503175710 51 301 2.0 2.0 0.00 0.00 0.00 41 1011.1
20260503175208 50 243 2.0 2.0 0.00 0.00 0.00 42 1011.2
20260503174703 50 355 3.0 3.0 0.00 0.00 0.00 42 1011.2
20260503174201 50 239 1.0 1.0 0.00 0.00 0.00 43 1011.1
20260503173656 49 279 4.0 6.0 0.00 0.00 0.00 43 1011.3
20260503173153 49 257 4.0 7.0 0.00 0.00 0.00 43 1011.2
20260503172650 49 322 4.0 5.0 0.00 0.00 0.00 43 1011.0
20260503172147 50 316 4.0 5.0 0.00 0.00 0.00 41 1011.1
20260503171643 50 327 4.0 6.0 0.00 0.00 0.00 41 1011.3
20260503171141 50 73 3.0 5.0 0.00 0.00 0.00 40 1011.4
20260503170638 51 245 1.0 2.0 0.00 0.00 0.00 42 1011.3
20260503170134 50 245 1.0 1.0 0.00 0.00 0.00 43 1011.3
20260503150526 48 300 7.0 10.0 0.00 0.00 0.00 47 1011.3
20260503131419 45 33 4.0 5.0 0.00 0.00 0.00 60 1012.2
20260503130916 45 326 3.0 5.0 0.00 0.00 0.00 62 1012.1
20260503130413 44 228 0.0 1.0 0.00 0.00 0.00 63 1011.9
20260503110817 42 327 3.0 5.0 0.00 0.00 0.00 70 1011.8
20260503110314 41 232 0.0 0.0 0.00 0.00 0.00 70 1011.5
20260503100240 41 328 3.0 5.0 0.00 0.00 0.00 72 1011.4